Paso Robles, CA

9:18 PM PST on December 14, 2019 (GMT -0800)
Paso Robles Municipal

Weather History for KPRB - October, 2019

Change the Weather History Date:

Saturday, October 5, 2019

  Actual Average Record
Temperature  
Mean Temperature 62 °F 65 °F  
Max Temperature 84 °F 83 °F 104 °F (1987)
Min Temperature 39 °F 47 °F 33 °F (2009)
Degree Days  
Heating Degree Days 3 3  
Month to date heating degree days 30 11  
Since 1 July heating degree days 56 43  
Cooling Degree Days 0 2  
Month to date cooling degree days 0 14  
Year to date cooling degree days 1035 905  
Growing Degree Days 12 (Base 50)    
Moisture  
Dew Point 34 °F    
Average Humidity 42    
Maximum Humidity 76    
Minimum Humidity 15    
Precipitation  
Precipitation 0.00 in 0.01 in 0.39 in (2011)
Month to date precipitation 0.00 0.06  
Year to date precipitation 11.28 9.18  
Sea Level Pressure  
Sea Level Pressure 30.06 in    
Wind  
Wind Speed 4 mph ()    
Max Wind Speed 15 mph    
Max Gust Speed 23 mph    
Visibility 10.0 miles    
Events      
T = Trace of Precipitation, MM = Missing Value Source: Averaged Metar Reports

Daily Weather History Graph

Daily Weather History Graph

Search for Another Location

Airport or City:

Astronomy

Oct. 05, 2019 Rise Set
Actual Time 7:00 AM PDT 6:40 PM PDT
Civil Twilight 6:35 AM PDT 7:06 PM PDT
Nautical Twilight 6:05 AM PDT 7:35 PM PDT
Astronomical Twilight 5:35 AM PDT 8:05 PM PDT
Moon 2:19 PM PDT (10/5) No Moon Set
Length of Visible Light 12h 31m
Length of Day
11h 40m
Waxing Crescent, 51% of the Moon is Illuminated
Oct 5
Waxing Crescent
Oct 13
Full
Oct 21
Last Quarter
Oct 27
New
Nov 4
First Quarter

Hourly Weather History & Observations

Time (PDT) Temp. Windchill Dew Point Humidity Pressure Visibility Wind Dir Wind Speed Gust Speed Precip Events Conditions
12:53 AM 48.0 °F - 36.0 °F 63% 30.10 in 10.0 mi ESE 3.5 mph - N/A   Clear
1:53 AM 45.0 °F 43.5 °F 34.0 °F 65% 30.10 in 10.0 mi ENE 3.5 mph - N/A   Clear
2:53 AM 43.0 °F 41.3 °F 35.1 °F 74% 30.10 in 10.0 mi ENE 3.5 mph - N/A   Clear
3:53 AM 43.0 °F - 35.1 °F 74% 30.09 in 10.0 mi Calm Calm - N/A   Clear
4:53 AM 42.1 °F 39.2 °F 35.1 °F 76% 30.09 in 10.0 mi NE 4.6 mph - N/A   Clear
5:53 AM 41.0 °F - 32.0 °F 70% 30.10 in 10.0 mi Calm Calm - N/A   Clear
6:53 AM 41.0 °F - 33.1 °F 73% 30.10 in 10.0 mi Calm Calm - N/A   Clear
7:53 AM 42.1 °F - 33.1 °F 70% 30.12 in 10.0 mi Calm Calm - N/A   Clear
8:53 AM 52.0 °F - 36.0 °F 54% 30.13 in 10.0 mi NW 3.5 mph - N/A   Clear
9:53 AM 60.1 °F - 37.9 °F 44% 30.13 in 10.0 mi NNW 5.8 mph - N/A   Clear
10:53 AM 69.1 °F - 35.1 °F 29% 30.11 in 10.0 mi Calm Calm - N/A   Clear
11:53 AM 75.0 °F - 34.0 °F 22% 30.09 in 10.0 mi NE 5.8 mph - N/A   Clear
12:53 PM 79.0 °F - 33.1 °F 19% 30.06 in 10.0 mi ESE 8.1 mph 19.6 mph N/A   Clear
1:53 PM 82.0 °F - 32.0 °F 16% 30.03 in 10.0 mi East 12.7 mph 19.6 mph N/A   Clear
2:53 PM 84.0 °F - 32.0 °F 15% 30.00 in 10.0 mi East 11.5 mph - N/A   Clear
3:53 PM 84.0 °F - 32.0 °F 15% 29.99 in 10.0 mi East 13.8 mph - N/A   Clear
4:53 PM 82.9 °F - 32.0 °F 16% 29.98 in 10.0 mi East 9.2 mph - N/A   Clear
5:53 PM 81.0 °F - 33.1 °F 18% 29.99 in 10.0 mi ESE 10.4 mph - N/A   Clear
6:53 PM 73.9 °F - 34.0 °F 23% 29.99 in 10.0 mi ESE 6.9 mph - N/A   Clear
7:53 PM 69.1 °F - 34.0 °F 27% 30.00 in 10.0 mi SSE 5.8 mph - N/A   Clear
8:53 PM 64.9 °F - 34.0 °F 32% 30.01 in 10.0 mi ENE 5.8 mph - N/A   Clear
9:53 PM 64.0 °F - 30.9 °F 29% 30.02 in 10.0 mi ENE 4.6 mph - N/A   Clear
10:53 PM 57.9 °F - 34.0 °F 41% 30.02 in 10.0 mi Calm Calm - N/A   Clear
11:53 PM 55.0 °F - 33.1 °F 43% 30.02 in 10.0 mi ENE 3.5 mph - N/A   Clear